Reflectivity
18 14 17 14 11 15 17 15 10 0 -11 -20 -20 -20 -20 -20 -20 -20 -20 -20 -20 -20 -20 -20 -20 -20 -20 -20 -20 -20 -20 -20 -20 23 14 28 25 -5 18 -13 -20 -20 -20 -20 -20 -20 -20
18 18 17 17 17 17 7 14 16 13 10 -9 -20 -20 -20 -20 -20 -20 -20 -20 -20 -20 -20 -20 -20 -20 -20 -19 -20 -20 -20 -20 -20 -4 -20 -18 -14 -7 -5 23 -4 -20 -20 -20 -20 -20 -20
17 18 18 17 17 15 -20 -20 -18 15 14 9 -20 -20 -20 -20 -20 -20 -20 -20 -20 -20 -20 -20 -20 -20 2 -20 -20 -20 -20 -20 -20 -20 19 -18 -20 -20 -20 24 18 -20 -5 -20 -20 -20 -20
15 14 16 7 6 -20 -20 -20 -19 -20 15 8 -19 -20 -20 -20 -20 -20 -20 -20 -20 -20 -20 -20 -20 -20 -11 -20 18 4 -19 2 -20 -20 -20 -20 -20 -19 -20 -10 18 -3 -20 -20 -20 -20 -20
8 11 14 10 -3 -18 -20 -20 -13 9 10 13 -6 -20 -20 -20 -20 -20 -20 -20 -20 -20 -20 -20 -20 -20 -12 -20 -13 8 5 -9 -20 -20 -20 -20 -20 -20 -20 -20 14 -18 -20 -20 -20 -20 -20
15 3 7 7 -16 -10 -20 -20 -20 -20 -17 -20 -20 -20 -20 -20 -20 -20 -20 -20 -20 -20 -20 -20 -20 -20 -20 -20 -20 16 -10 13 3 -20 3 -20 -20 -4 -7 -20 -9 -19 -20 -20 -20 -20 -20
17 14 10 -8 -7 -20 -20 -20 -20 -20 -20 -20 -20 -20 -20 -20 -20 -20 -20 -20 -20 -20 -20 -20 -20 -20 -20 -20 -20 -20 -20 21 24 12 17 23 -12 2 -20 -20 1 -20 -20 -20 -20 -20 -20
17 -20 -9 -20 -20 -20 -20 -20 -20 -20 -20 -20 -20 -20 -20 -20 -20 -20 -20 -20 -20 -20 -20 -20 -20 -20 -20 -20 -20 -20 -20 -6 25 22 32 17 42 24 20 -17 -20 -20 -20 -20 -20 -20 -20
14 13 -7 -20 -20 -20 -20 -20 -20 -20 -20 -20 -20 -20 -20 -20 -20 -20 -20 -20 -20 -20 -20 -20 -20 -20 -20 -20 -20 -20 -20 -2 4 9 -9 13 -4 14 -19 -16 7 -20 -20 -20 -20 -20 -20
13 11 0 -3 -20 -20 -20 -20 -20 -20 -20 -20 -20 -20 -20 -20 -20 -20 -20 -20 -20 -20 -20 -20 -20 -20 -20 -20 -20 -20 -20 -20 -20 -20 -20 -6 -20 -20 -11 -12 -15 -20 -20 -15 -20 -20 -20
-18 5 -15 -20 -20 -20 -20 -20 -20 -20 -20 -20 -20 -20 -20 -20 -20 -20 -20 -20 -20 -20 -20 -20 -20 -20 -20 -20 -20 -20 -20 -20 -20 -20 -18 -20 -1 -14 -20 -20 -20 -20 -20 -20 -20 -20 -18
-6 -9 -20 -20 -20 -20 -20 -20 -20 -20 -20 -20 -20 -20 -20 -20 -20 -20 -20 -20 -20 -20 -20 -20 -20 -20 -20 -20 -20 -20 -20 -20 -20 -20 -20 -20 -20 -20 -20 -20 -20 -20 -20 -20 -20 -14 -3
-20 -20 -20 -20 -20 -20 -20 -20 -20 -20 -20 -20 -20 -20 -20 -20 -20 -20 -20 -20 -20 -20 -20 -20 -20 -20 -20 -20 -20 -20 -20 -20 -20 -20 -20 -20 -20 -20 -20 -20 -20 -20 -20 -20 13 11 -20
13 -20 -20 -20 -20 -20 -20 -20 -20 -20 -20 -20 -20 -20 -20 -20 -20 -20 -20 -20 -20 -20 -20 -20 -20 -20 -20 -20 -20 -20 -20 -20 -20 -20 -20 -20 -20 -20 -20 -20 -20 -20 -20 -20 -11 -20 -20
14 12 -7 -20 -20 -20 -20 -20 -20 -20 -20 -20 -20 -20 -20 -20 -20 -20 -20 -20 -20 -20 -20 -20 -20 -20 -20 -20 -20 -20 -20 -20 -20 -20 -20 -20 -20 -20 -20 -20 -19 -20 -20 -20 -20 -20 -20
7 11 3 -17 -20 -20 -20 -20 -20 -20 -20 -20 -20 -20 -20 -20 -20 -20 -20 -20 -20 -20 -20 -20 -20 -20 -20 -20 -20 -20 -20 -20 -20 -20 -20 -20 -20 -20 -20 -20 -20 -20 -20 -20 -20 -20 -20
-20 -15 12 2 -20 -20 -20 -20 -20 -20 -20 -20 -20 -20 -20 -20 -20 -20 -20 -20 -20 -20 -20 -20 -20 -20 -20 -20 -20 -20 -20 -20 -20 -20 -20 -20 -20 -20 -20 -20 -20 -20 -20 -20 -20 -20 -20
-20 -20 -20 -19 -20 -20 -20 -20 -20 -20 -20 -20 -20 -20 -20 -20 -20 -20 -20 -20 -20 -20 -20 -20 -20 -20 -20 -20 -20 -20 -20 -20 -20 -20 -20 -20 -20 -20 -20 -20 -20 -14 -20 -20 -20 -20 -20
-20 -20 -20 -20 -20 -20 -20 -20 -20 -20 -20 -20 -20 -20 -20 -20 -20 -20 -20 -20 -20 -20 -20 -20 -20 -20 -20 -20 -20 -20 -20 -20 -20 -20 -20 -20 -20 -20 -20 -20 -20 -20 -17 -20 -20 -20 -20
-14 -20 -20 -20 -20 -20 -20 -20 -20 -20 -20 -20 -20 -20 -20 -20 -20 -20 -20 -20 -20 -20 -20 -20 -20 -20 -20 -20 -20 -20 -20 -20 -20 -20 -20 -20 -20 -20 -20 -20 -20 -20 -20 -20 -20 -20 -20
15 5 -20 -20 -20 -20 -20 -20 -20 -20 -20 -20 -20 -20 -20 -20 -20 -20 -20 -20 -20 -20 -20 -20 -20 -20 -20 -20 -20 -20 -20 -20 -20 -20 -20 -20 -20 -20 -20 -20 -20 -20 -20 -20 -20 -20 -20
7 9 15 -20 -20 -20 -20 -20 -20 -20 -20 -20 -20 -20 -20 -20 -20 -20 -20 -20 -20 -20 -20 -20 -20 -20 -20 -20 -20 -20 -20 -20 -20 -20 -20 -20 -20 -20 -20 -20 -20 -20 -20 -20 -20 -20 -20
7 -4 9 19 -20 -20 -20 -20 -20 -20 -20 -20 -20 -20 -20 -20 -20 -20 -20 -20 -20 -20 -20 -20 -20 -20 -20 -20 -20 -20 -20 -20 -20 -20 -20 -20 -20 -20 -20 -20 -20 -20 -20 -20 -20 -20 -20
-5 -20 -8 11 21 -20 -20 -20 -20 -20 -20 -20 -20 -20 -20 -20 -20 -20 -20 -20 -20 -20 -20 -20 -20 -20 -20 -20 -20 -20 -20 -20 -20 -20 -20 -20 -20 -20 -20 -20 -20 -20 -20 -20 -20 -20 -20
11 -4 -20 -19 -5 22 -17 -20 -20 -20 -20 -20 -20 -20 -20 -20 -20 -20 -20 -20 -20 -20 -20 -20 -20 -20 -20 -20 -20 -20 -20 -20 -20 -20 -20 -20 -20 -20 -20 -20 -20 -20 -20 -20 -20 -20 -20
11 -2 -10 -15 4 6 19 12 -19 -20 -3 -19 -20 -20 -20 -20 -20 -20 -20 -20 -20 -20 -20 -20 -20 -20 -20 -20 -20 -20 -20 -20 -20 -20 -20 -20 -20 -20 -20 -20 -20 -20 -20 -20 -20 -20 -20
-2 12 -1 -5 -20 13 21 15 16 0 6 9 -20 -20 -20 -20 -20 -20 -20 -20 -20 -20 -20 -20 -20 -20 -20 -20 -20 -20 -20 -20 -20 -20 -20 -20 -20 -20 -20 -20 -20 -20 -20 -20 -20 -20 -20
13 5 4 3 -7 -18 16 26 18 21 -3 14 -17 -20 -20 -20 -20 -20 -20 -20 -20 -20 -20 -20 -20 -20 -20 -20 -20 -20 -20 -20 -20 -20 -20 -20 -20 -20 -20 -20 -20 -20 -20 -20 -20 -20 -20
11 11 -7 -4 -9 -4 -5 15 21 24 16 5 0 -20 -20 -20 -20 -20 -20 -20 -20 -20 -20 -20 -20 -20 -20 -20 -20 -20 -20 -20 -20 -20 -20 -20 -20 -20 -20 -20 -20 -20 -20 -20 -20 -20 -20
Wind_Speed
14 14 14 14 14 14 14 14 13 13 13 13 12 12 13 13 13 13 13 12 10 8 7 7 8 8 1 2 4 2 8 7 3 5 7 7 4 4 5 5 4 1 3 8 3 8 6
14 14 14 14 14 14 15 15 15 14 14 13 13 13 13 14 13 12 12 12 12 10 8 7 8 6 2 3 0 1 5 4 3 2 3 4 4 2 3 2 7 2 3 5 4 6 5
13 14 14 14 15 15 14 15 16 15 15 14 14 15 13 14 15 13 13 13 14 12 10 7 6 3 1 4 1 2 4 4 2 1 2 1 1 1 4 4 2 2 2 3 4 3 5
12 13 14 14 14 14 15 15 16 16 16 15 14 15 14 14 15 15 13 15 16 13 9 7 1 1 4 2 1 0 2 2 3 2 2 2 3 4 2 4 3 1 4 2 3 5 7
11 12 13 14 14 15 15 16 16 17 17 15 14 15 15 14 15 16 17 16 14 10 6 4 2 2 5 4 2 3 2 2 1 3 4 2 3 1 1 4 4 3 5 5 4 8 4
12 13 14 14 15 16 16 17 17 18 18 15 14 14 16 15 15 16 18 11 6 4 2 2 1 2 3 1 4 4 0 7 5 2 3 2 1 1 1 1 9 5 2 3 4 5 5
12 13 14 15 15 16 17 17 18 18 19 17 15 15 14 15 13 12 9 5 7 5 6 3 5 3 3 3 4 6 3 5 1 2 2 2 2 5 8 4 7 7 3 3 3 3 5
12 13 14 15 15 16 17 17 18 18 19 18 16 16 14 14 14 10 3 4 3 2 7 3 6 5 5 3 2 4 8 3 3 2 4 3 2 5 5 5 4 5 1 5 1 1 3
13 13 14 15 16 16 17 18 18 19 19 18 17 16 13 13 13 3 4 3 1 1 1 7 5 5 5 2 1 4 9 5 4 1 3 2 6 5 2 5 4 2 6 4 6 3 6
12 14 15 15 17 16 16 17 18 19 18 18 18 15 13 14 4 1 2 0 2 2 6 7 3 5 4 2 2 3 5 3 1 2 1 3 2 4 8 4 6 4 1 3 6 5 4
13 14 14 15 17 18 18 18 18 19 19 18 17 14 13 4 2 2 1 1 3 4 6 6 7 1 6 3 4 1 1 2 2 1 1 4 7 5 3 1 3 2 0 4 3 6 6
13 14 14 15 16 18 18 18 18 17 18 18 17 12 9 3 2 1 0 1 3 10 4 7 4 7 5 5 6 5 5 7 1 4 5 1 3 2 1 3 2 3 4 7 6 4 4
13 14 15 15 16 17 17 18 18 18 18 18 17 11 3 0 1 1 2 3 7 7 3 7 4 6 3 4 6 8 5 7 5 6 6 7 4 5 4 1 1 8 6 4 2 1 5
15 15 15 16 16 17 17 17 19 19 19 18 17 5 3 0 1 3 3 6 6 3 4 3 3 5 4 6 4 7 5 7 5 4 2 4 7 5 5 3 2 3 3 7 3 4 5
14 15 14 15 16 16 17 18 19 19 19 21 8 2 2 2 2 2 6 5 7 6 1 4 3 5 6 4 3 4 5 3 2 5 3 2 3 4 1 2 2 2 1 4 8 4 5
15 15 14 15 16 16 17 18 19 19 19 17 2 2 2 1 2 5 6 3 3 4 3 2 2 1 3 6 5 4 5 2 5 2 1 2 1 2 2 2 2 1 5 3 3 5 3
12 13 15 15 14 15 14 17 18 18 20 6 3 3 2 1 3 6 4 5 4 3 3 4 3 1 0 1 2 2 3 2 2 5 2 2 3 2 1 3 1 1 1 4 4 3 6
16 14 13 15 15 13 14 14 15 17 19 7 1 2 2 3 4 1 2 4 2 2 2 1 2 3 3 1 1 1 1 3 3 2 2 1 3 1 2 2 2 1 3 1 4 2 3
18 17 15 14 13 13 13 13 13 13 9 3 1 3 2 3 1 1 3 1 2 3 3 2 3 3 2 2 1 2 2 2 1 1 0 1 2 3 7 4 2 1 1 3 4 3 2
21 20 18 16 14 12 12 12 11 10 8 1 1 3 4 3 1 5 4 3 2 1 2 3 2 0 2 2 3 2 1 2 1 1 3 2 2 4 6 3 2 2 2 3 5 4 1
23 23 21 18 16 14 12 12 10 8 9 3 1 4 3 3 3 2 4 5 4 4 3 3 1 4 3 2 1 2 1 2 2 3 2 3 1 2 4 4 2 2 2 2 3 3 4
21 26 24 21 19 17 14 12 11 7 3 1 3 3 2 2 1 5 3 6 8 4 7 4 4 6 5 4 5 4 1 1 1 3 2 3 1 2 2 2 5 3 4 3 2 3 2
24 23 27 25 22 19 16 14 13 9 6 2 1 2 4 2 2 4 6 6 9 7 5 4 6 4 4 6 5 3 2 2 2 1 2 2 2 3 4 3 3 5 6 5 4 4 6
26 26 27 27 27 23 20 17 16 13 12 3 3 2 3 5 4 7 4 7 8 7 4 3 4 5 3 5 5 5 5 4 2 3 1 3 3 2 3 3 1 3 3 3 4 1 2
29 29 28 28 27 28 24 21 19 17 15 4 2 4 4 5 5 4 6 5 4 2 3 5 3 2 4 6 3 2 3 2 1 2 1 1 4 2 2 3 4 1 3 5 5 4 4
30 31 30 27 27 27 28 25 23 20 17 4 3 3 3 3 8 4 6 6 6 5 1 3 1 3 3 3 3 3 5 4 3 1 1 3 3 3 2 2 5 2 3 3 3 4 7
34 32 31 30 30 26 28 29 26 24 21 7 4 6 3 4 5 6 5 8 6 4 3 4 5 2 1 3 3 5 5 3 4 6 6 2 1 4 2 3 8 3 4 2 3 5 6
33 34 33 31 33 31 27 31 29 26 24 12 4 8 5 4 5 6 5 6 3 3 6 5 5 1 2 4 5 4 4 5 2 4 6 7 7 4 3 2 7 5 3 5 3 3 5
35 36 37 37 36 36 31 29 33 29 26 20 4 3 4 3 3 2 2 2 2 5 6 3 2 5 6 5 1 4 3 1 4 4 1 3 6 5 7 5 3 4 2 1 4 6 5
Wind_Direction
34 32 30 28 23 18 13 9 2 349 339 338 336 335 332 332 336 339 338 328 310 314 321 323 319 324 36 358 279 325 344 359 21 147 167 178 180 144 172 143 115 146 209 255 300 318 303
30 28 27 24 21 16 12 7 1 353 343 331 330 329 329 326 330 333 330 322 310 298 294 308 323 322 334 329 6 312 19 14 28 66 149 151 193 195 137 165 154 152 283 269 3 309 295
26 23 21 19 18 14 10 4 1 356 345 337 328 325 326 322 322 328 325 315 304 295 290 291 310 333 340 253 62 21 357 360 32 24 133 259 82 124 138 159 215 144 214 317 269 261 304
21 18 17 15 11 9 6 4 359 357 349 340 332 324 324 322 320 322 321 306 296 285 276 270 311 26 274 113 114 276 101 9 47 43 65 47 96 102 66 301 149 80 85 139 222 205 254
10 13 10 8 5 3 2 1 359 358 354 345 335 325 323 324 323 323 317 305 285 293 265 187 105 121 289 127 74 15 331 25 94 64 29 118 43 105 106 148 105 232 184 184 325 192 167
7 4 4 3 3 359 358 358 357 356 355 350 340 332 324 325 326 325 319 304 295 327 51 146 94 51 208 239 133 110 265 82 40 18 129 91 156 67 221 168 184 183 224 163 201 195 183
0 359 360 357 359 356 355 355 354 354 354 351 341 335 327 323 324 327 344 10 17 340 34 192 281 246 297 68 115 202 160 119 15 258 122 226 153 207 199 200 163 161 179 126 245 243 102
350 348 351 351 353 353 351 351 351 351 352 351 339 334 329 325 321 324 75 74 67 211 318 271 260 259 252 178 171 235 132 183 220 99 190 149 108 192 192 246 131 91 218 173 264 11 102
345 343 343 344 345 349 347 347 349 346 347 348 341 334 328 325 318 34 84 97 26 21 48 302 260 277 259 175 267 229 157 184 155 185 237 169 163 225 12 343 331 295 199 187 157 134 53
343 342 340 339 339 342 343 342 345 343 341 344 342 338 330 323 56 293 56 335 80 103 62 293 333 294 342 347 338 202 215 215 68 234 163 134 268 184 156 203 175 179 268 174 138 90 152
336 339 343 339 337 338 338 338 341 341 338 340 342 340 335 24 161 68 201 208 120 65 43 282 304 311 316 32 304 331 215 43 96 356 117 294 1 40 117 185 190 165 193 128 91 90 104
327 331 336 337 336 336 335 335 336 338 337 339 339 338 340 17 49 262 7 56 52 43 281 330 307 359 8 354 330 314 26 34 323 72 47 19 292 74 257 309 355 154 87 43 44 70 43
318 323 326 330 332 333 333 333 335 337 338 336 334 327 355 156 192 130 78 44 37 100 305 317 336 360 310 305 337 26 26 16 28 39 3 350 338 320 47 348 14 65 68 40 18 10 209
313 313 318 323 329 330 330 332 332 335 335 337 332 322 328 144 12 92 63 51 73 241 265 324 356 323 9 355 28 3 9 20 16 30 84 130 334 7 4 56 107 35 117 146 159 160 218
307 310 308 313 320 326 327 329 331 333 335 337 340 349 10 311 105 60 74 57 199 185 226 339 336 53 330 356 55 34 22 332 330 23 81 37 313 324 342 10 105 178 228 133 99 29 63
300 302 304 307 312 319 321 325 329 332 334 342 41 14 320 341 88 65 76 226 203 216 158 170 93 36 350 323 37 25 16 333 333 37 151 26 19 236 347 1 324 174 167 80 2 128 217
269 288 298 300 304 310 315 320 326 333 334 341 33 27 293 13 61 51 139 215 231 221 193 150 171 199 343 355 344 341 322 304 351 317 346 4 110 292 76 17 331 294 317 46 108 104 150
268 267 276 290 297 301 306 313 324 333 339 35 44 350 331 3 45 57 151 198 178 229 229 216 151 186 189 191 24 154 279 243 351 297 17 26 132 266 257 276 225 239 324 87 115 196 45
261 263 263 268 275 286 294 303 315 330 11 342 356 261 347 76 199 281 267 250 246 167 239 223 223 191 190 211 133 183 201 230 341 8 336 0 17 21 349 358 255 109 282 127 117 85 164
263 258 256 260 264 263 277 287 300 316 335 64 19 339 324 53 276 149 173 219 223 239 238 190 267 318 183 220 197 215 330 190 214 181 208 146 122 163 186 210 199 315 344 73 87 78 154
297 261 256 253 250 254 258 268 279 301 327 107 225 243 197 259 272 197 167 168 170 216 227 203 201 219 221 222 283 241 207 333 186 355 111 119 147 119 261 260 255 275 318 49 105 149 147
297 317 261 249 243 242 247 255 257 266 72 279 222 163 327 241 243 166 187 219 197 182 154 233 212 180 178 217 205 240 184 214 257 338 60 352 309 15 298 112 39 309 278 255 215 203 221
308 300 317 257 243 236 234 233 241 231 149 246 280 330 120 245 166 137 217 212 208 159 214 193 187 143 204 220 167 135 102 90 50 28 352 40 93 47 293 39 327 291 218 181 181 191 156
292 294 296 311 253 235 224 222 225 220 190 172 225 116 126 260 199 201 207 185 196 211 178 185 147 153 158 75 78 68 52 47 116 43 98 131 100 112 258 21 324 242 26 191 151 118 211
290 283 286 287 306 244 225 214 216 219 205 179 209 169 182 246 202 240 199 185 117 105 179 168 191 138 140 103 68 38 350 356 20 13 360 110 131 160 170 203 280 342 206 148 174 220 167
283 282 280 283 272 295 231 216 209 212 205 159 222 175 176 152 237 171 169 177 165 174 149 188 79 146 72 97 116 200 227 230 220 213 45 80 97 136 136 184 233 198 176 164 125 281 169
281 277 278 275 271 267 271 217 208 206 199 175 234 175 139 201 243 154 185 179 149 131 133 139 173 150 37 135 140 180 238 182 209 186 174 156 42 190 183 241 292 214 169 137 145 237 160
278 278 273 271 270 262 262 239 207 207 195 181 218 186 163 212 267 196 194 146 130 167 152 163 98 239 89 165 151 200 186 222 192 171 179 172 154 196 114 165 281 163 100 175 210 65 145
274 272 266 264 263 257 251 266 207 202 195 181 199 164 146 196 261 284 283 304 205 187 136 186 164 160 168 107 185 115 177 166 171 234 71 227 190 177 183 213 241 192 52 84 153 157 193